CW2103 Weather Reports


Display with metric or nautical units.
time (UTC)temp
F
wind
direction
speed
MPH
gust
MPH
rain 1hr
in
rain 24hr
in
rain mn
in
humidity
%
barometer
mb
20180525201739 70 72 0.0 2.0 0.00 0.00 0.00 69 1016.7
20180525200738 70 75 3.0 3.0 0.00 0.00 0.00 69 1016.5
20180525194737 71 79 2.0 4.0 0.00 0.00 0.00 69 1016.3
20180525193737 71 81 3.0 6.0 0.00 0.00 0.00 68 1016.1
20180525192737 72 47 3.0 3.0 0.00 0.00 0.00 67 1015.8
20180525191737 72 70 3.0 5.0 0.00 0.00 0.00 66 1015.7
20180525185737 73 34 3.0 3.0 0.00 0.00 0.00 63 1015.2
20180525183736 74 40 2.0 4.0 0.00 0.00 0.00 62 1014.9
20180525182736 74 44 1.0 5.0 0.00 0.00 0.00 61 1014.9
20180525181738 75 39 4.0 7.0 0.00 0.00 0.00 60 1014.7
20180525180737 76 59 3.0 3.0 0.00 0.00 0.00 62 1014.5
20180525175736 76 59 3.0 5.0 0.00 0.00 0.00 60 1014.4
20180525174737 76 66 3.0 4.0 0.00 0.00 0.00 59 1014.3
20180525173736 76 62 3.0 5.0 0.00 0.00 0.00 62 1014.2
20180525172735 76 79 3.0 3.0 0.00 0.00 0.00 63 1014.2
20180525165735 76 63 4.0 7.0 0.00 0.00 0.00 64 1014.2
20180525154734 77 74 8.0 10.0 0.00 0.01 0.00 60 1013.8
20180525153734 77 92 4.0 10.0 0.00 0.02 0.00 60 1013.8
20180525150733 79 34 3.0 7.0 0.00 0.03 0.00 47 1013.5
20180525144734 80 37 3.0 7.0 0.00 0.05 0.00 46 1013.5
20180525142733 80 350 3.0 11.0 0.00 0.08 0.00 43 1013.5
20180525141734 79 65 4.0 13.0 0.00 0.10 0.00 44 1013.4
20180525140733 80 323 10.0 14.0 0.00 0.13 0.00 48 1013.4
20180525135733 84 352 12.0 12.0 0.00 0.20 0.00 48 1013.3
20180525134734 84 217 3.0 4.0 0.00 0.25 0.00 47 1013.1
20180525132732 83 203 3.0 4.0 0.00 0.75 0.00 49 1013.0
20180525131733 83 215 4.0 6.0 0.00 0.91 0.00 48 1013.1
20180525130732 83 217 3.0 7.0 0.00 0.91 0.00 48 1013.1
20180525125732 83 187 5.0 5.0 0.00 0.91 0.00 51 1013.1
20180525124731 83 200 7.0 7.0 0.00 0.91 0.00 50 1013.2
20180525123731 83 200 6.0 6.0 0.00 0.91 0.00 50 1013.2
20180525121732 83 176 1.0 9.0 0.00 0.91 0.00 45 1013.3
20180525110730 83 192 4.0 6.0 0.00 0.91 0.00 48 1013.9
20180525105730 82 169 2.0 4.0 0.00 0.91 0.00 46 1014.0
20180525101730 82 145 2.0 3.0 0.00 0.91 0.00 48 1014.1
20180525095729 81 108 2.0 5.0 0.00 0.91 0.00 50 1014.2
20180525091730 80 15 1.0 3.0 0.00 0.91 0.00 51 1014.3
20180525090729 79 15 1.0 4.0 0.00 0.91 0.00 52 1014.3
20180525084728 79 22 2.0 4.0 0.00 0.91 0.00 51 1014.5
20180525083729 78 21 2.0 2.0 0.00 0.91 0.00 53 1014.4
20180525081729 77 15 0.0 1.0 0.00 0.91 0.00 59 1014.5
20180525074727 75 19 6.0 6.0 0.00 0.91 0.00 61 1014.5
20180525065726 72 315 2.0 2.0 0.00 0.91 0.00 62 1014.6
20180525064727 71 315 2.0 3.0 0.00 0.91 0.00 64 1014.6
20180525062726 70 322 2.0 3.0 0.00 0.91 0.00 69 1014.5
20180525060726 68 324 2.0 4.0 0.00 0.91 0.00 71 1014.4
20180525055726 68 327 4.0 5.0 0.00 0.91 0.00 72 1014.4
20180525054727 68 321 3.0 4.0 0.00 0.91 0.00 73 1014.3
20180525051725 66 313 2.0 3.0 0.00 0.91 0.00 76 1014.2
20180525050726 65 313 2.0 3.0 0.00 0.91 0.00 76 1014.3
20180525045725 65 313 2.0 3.0 0.00 0.91 0.00 76 1014.3
20180525043725 63 316 3.0 3.0 0.00 0.91 0.00 80 1014.3
20180525041724 62 316 3.0 3.0 0.00 0.91 0.00 82 1014.3
20180525035724 63 316 2.0 3.0 0.00 0.91 0.00 82 1014.4
20180525034725 63 316 2.0 3.0 0.00 0.91 0.00 81 1014.3
20180525033724 63 316 2.0 3.0 0.00 0.91 0.00 81 1014.2
20180525031725 63 316 3.0 3.0 0.00 0.91 0.00 81 1014.2
20180525030723 63 316 3.0 3.0 0.00 0.91 0.00 81 1014.1
20180525025723 63 316 3.0 3.0 0.00 0.91 0.00 81 1014.2
20180525024723 63 316 3.0 3.0 0.00 0.91 0.00 81 1014.3
20180525023723 63 316 2.0 3.0 0.00 0.91 0.00 80 1014.4
20180525020723 64 314 2.0 3.0 0.00 0.91 0.00 78 1014.4
20180525014722 64 313 2.0 4.0 0.00 0.91 0.00 78 1014.4
20180525013722 64 313 3.0 4.0 0.00 0.91 0.00 78 1014.5
20180525012723 65 313 3.0 3.0 0.00 0.91 0.00 78 1014.6
20180525011723 65 313 3.0 4.0 0.00 0.91 0.00 78 1014.7
20180525010722 64 316 4.0 7.0 0.00 0.91 0.00 78 1014.7
20180525004722 64 321 2.0 4.0 0.00 0.91 0.00 78 1014.8
20180525003721 64 323 3.0 7.0 0.00 0.91 0.00 78 1014.9
20180524235723 64 310 3.0 3.0 0.00 0.91 0.00 79 1015.1
20180524233721 64 310 3.0 3.0 0.00 0.91 0.00 79 1015.2
20180524230720 65 313 2.0 3.0 0.00 0.91 0.00 78 1015.2
20180524225721 65 314 2.0 3.0 0.00 0.91 0.00 78 1015.1
20180524224721 65 314 2.0 3.0 0.00 0.91 0.00 78 1015.1
20180524223720 65 314 2.0 3.0 0.00 0.91 0.00 78 1015.1
20180524220719 64 326 2.0 4.0 0.00 0.91 0.00 81 1015.0
20180524215720 65 326 2.0 3.0 0.00 0.91 0.91 80 1015.0
20180524214719 65 326 2.0 3.0 0.00 0.91 0.91 80 1014.9
20180524213719 65 326 2.0 3.0 0.00 0.91 0.91 80 1014.9
20180524212720 65 326 2.0 3.0 0.00 0.91 0.91 79 1014.9
20180524210719 65 311 3.0 4.0 0.00 0.91 0.91 79 1014.9
20180524205720 65 304 3.0 3.0 0.00 0.91 0.91 79 1014.8
20180524204719 66 304 3.0 4.0 0.00 0.91 0.91 78 1014.9
20180524202719 66 316 3.0 3.0 0.00 0.91 0.91 78 1014.8